Regional Weather Roundup
Issued by NWS

Home | Current Version | Previous Version | Graphics & Text | Print | Product List | Glossary On
Versions: 1 2 3 4 5 6 7 8 9 10 11 12 13 14 15 16 17 18 19 20 21 22 23 24 25 26 27 28 29 30 31 32 33 34 35 36 37 38 39 40 41 42 43 44 45 46 47 48 49 50
903
ASUS45 KABQ 231310
RWRNM
NEW MEXICO REGIONAL WEATHER ROUNDUP
NATIONAL WEATHER SERVICE ALBUQUERQUE NM
700 AM MDT SAT SEP 23 2017

NOTE: "FAIR" MEANS FEW OR NO CLOUDS BELOW 12,000 FEET AGL WITH NO
       SIGNIFICANT WEATHER OR OBSTRUCTIONS TO VISION.

      THIS PRODUCT IS RELEASED AS TWO VERSIONS.  ONE VERSION NEAR
      THE TOP OF THE HOUR CONTAINING PRELIMINARY DATA FROM ALBUQUERQUE
      AND OTHER STATIONS.  A FINAL VERSION WITH ADDITIONAL DATA IS
      ISSUED ABOUT 10 MINUTES AFTER THE HOUR.

NMZ501-503-504-510>518-231400-
NORTHWEST PLATEAU/NORTHCENTRAL MOUNTAINS

CITY           SKY/WX    TMP DP  RH WIND       PRES   REMARKS
FARMINGTON     FAIR      50  44  80 SE3       29.85R
LOS ALAMOS     FAIR      60  38  43 W3        30.01F
SANTA FE       FAIR      57  47  69 N5        29.95F
TAOS           MOCLDY    55  46  71 SE9       30.04F
ANGEL FIRE     FAIR      46  43  91 S6        30.10F

$$
NMZ402-403-502-505>509-231400-
WESTCENTRAL MOUNTAINS/SOUTHWEST MOUNTAINS

CITY           SKY/WX    TMP DP  RH WIND       PRES   REMARKS
GALLUP         FAIR      42  30  62 CALM      29.91S
GRANTS         FAIR      48  39  71 CALM      29.95R
SILVER CITY    FAIR      64  47  54 SW7       29.92R

$$
NMZ407-409-411-412-231400-
SOUTHERN DESERTS

CITY           SKY/WX    TMP DP  RH WIND       PRES   REMARKS
DEMING         CLOUDY    64  48  56 E6        29.87R
LAS CRUCES     CLOUDY    71  47  42 S6        29.88S
HOLLOMAN AFB   CLOUDY    75  51  43 S9        29.86S
ALAMOGORDO     CLOUDY    75  48  38 S8        29.87R
T OR C         MOCLDY    69  42  37 S6        29.87R

$$
NMZ519>523-231400-
CENTRAL VALLEYS/CENTRAL HIGHLANDS

CITY           SKY/WX    TMP DP  RH WIND       PRES   REMARKS
ALBUQUERQUE    CLOUDY    65  50  58 E7        29.89S
DOUBLE EAGLE   DRIZZLE   59  43  55 S3        29.92S
MORIARTY ARPT  MOCLDY    59  49  70 SE5       29.98R
CLINES CORNERS MOCLDY    58  56  93 SE13      30.02S
BELEN          LGT RAIN  63  44  49 S6        29.88S
SOCORRO        MOCLDY    65  37  35 S5        29.87S

$$
NMZ524>526-539-540-231400-
SOUTHCENTRAL MOUNTAINS

CITY           SKY/WX    TMP DP  RH WIND       PRES   REMARKS
RUIDOSO        CLOUDY    57  54  88 SE8       30.05S

$$
NMZ527>531-231400-
NORTHEAST HIGHLANDS/NORTHEAST PLAINS

CITY           SKY/WX    TMP DP  RH WIND       PRES   REMARKS
LAS VEGAS      LGT RAIN  59  58  96 S15       30.02R
RATON          LGT RAIN  59  54  83 W8        29.94F
CLAYTON        MOCLDY    61  61 100 S18       29.94S

$$
NMZ532>537-231400-
EASTCENTRAL PLAINS

CITY           SKY/WX    TMP DP  RH WIND       PRES   REMARKS
SANTA ROSA     FAIR      64  63  97 S5        29.91F
TUCUMCARI      FAIR      69  62  78 S16       29.87R
CANNON AFB     CLOUDY    66  66 100 SE12      29.95S
CLOVIS AIRPORT CLOUDY    65  62  90 SE12      29.95S

$$
NMZ028-029-538-231400-
SOUTHEAST PLAINS

CITY           SKY/WX    TMP DP  RH WIND       PRES   REMARKS
ROSWELL        CLOUDY    69  66  90 S9        29.88R
ARTESIA        MOCLDY    68  68 100 SE16      29.87S
CARLSBAD       CLOUDY    69  68  96 SE8       29.86R
HOBBS          CLOUDY    70  64  83 S17G23    29.92R


$$




USA.gov is the U.S. government's official web portal to all federal, state and local government web resources and services.